Regional Weather Roundup
Issued by NWS Newport/Morehead, NC

Current Version | Previous Version | Graphics & Text | Print | Product List | Glossary Off
Versions: 1 2 3 4 5 6 7 8 9 10 11 12 13 14 15 16 17 18 19 20 21 22 23 24 25 26 27 28 29 30 31 32 33 34 35 36 37 38 39 40 41 42 43 44 45 46 47 48 49 50

000
ASUS42 KMHX 251525
RWRMHX
WEATHER ROUNDUP FOR EASTERN NORTH CAROLINA
NATIONAL WEATHER SERVICE NEWPORT/MOREHEAD CITY NC
1100 AM EDT SUN SEP 25 2016

NOTE: "FAIR" INDICATES FEW OR NO CLOUDS BELOW 12,000 FEET
WITH NO SIGNIFICANT WEATHER AND/OR OBSTRUCTIONS TO VISIBILITY

NCZ015>017-031-032-045>047-102-103-251600-
NORTH COAST

CITY           SKY/WX    TMP DP  RH WIND       PRES   REMARKS
EDENTON        CLOUDY    72  63  72 NE6       30.18R
ELIZABETH CITY PTSUNNY   72  57  59 NE12      30.17S
KITTY HAWK     NOT AVBL
MANTEO         PTSUNNY   72  56  57 E13       30.16S

$$

NCZ045>047-081-094-103-104-251600-
CENTRAL COAST

CITY           SKY/WX    TMP DP  RH WIND       PRES   REMARKS
FRISCO         CLOUDY    74  62  66 VRB7G21   30.14R

$$

NCZ095-097-098-100-101-251600-
SOUTHERN COAST

CITY           SKY/WX    TMP DP  RH WIND       PRES   REMARKS
BEAUFORT       CLOUDY    79  71  76 N14       30.13R
CEDAR ISLAND   NOT AVBL
JACKSONVILLE   PTSUNNY   79  68  69 NE9       30.13R
PINEY ISLAND   CLOUDY   N/A N/A N/A NE12      30.14R
WILMINGTON     SUNNY     81  71  71 NE9       30.12S


$$

NCZ011>013-027>030-043-044-078>080-089-090>093-098-251600-
COASTAL PLAIN

CITY           SKY/WX    TMP DP  RH WIND       PRES   REMARKS
AHOSKIE        PTSUNNY   69  63  82 E3        30.18R
CLINTON        PTSUNNY   76  71  85 E3        30.14S
ELIZABETHTOWN  PTSUNNY   79  71  75 E3        30.13S
GOLDSBORO      PTSUNNY   73  72  94 NE9       30.14S
GREENVILLE     CLOUDY    72  68  88 E7        30.18R
HAVELOCK       CLOUDY    75  68  78 NE10      30.15R
KENANSVILLE    CLOUDY    75  68  78 E6        30.15S
KINSTON        PTSUNNY   72  68  88 NE7       30.16S
NEW BERN       CLOUDY    74  67  78 NE10      30.16R
RICHLANDS      CLOUDY    75  68  78 NE10      30.15R
ROCKY MOUNT    CLOUDY    72  68  87 VRB3      30.17S
WASHINGTON     PTSUNNY   72  66  83 E8        30.17R
WHITEVILLE     NOT AVBL

$$

AMZ130-135-150-152-154-156-158-170-250-252-270-ANZ085-086-088-633-658-670-251600-
MARINE OBSERVATIONS

STATION/POSITION TIME  TEMP    WIND        PRES    WAVE   SWELL
                       AIR SEA DIR/SP/G            HT/PER HT/PER
                 (UTC) (F)     (DEG/KT/KT) (MB)    (FT/S) (FT/S)
CHESAPEAKE LIGHT NOT AVBL
64 E VA BEACH    1450   70 74   30/ 16/ 17 1020.8    5/10   3/10
DUCK             1500   70 77   40/ 15/ 17 1021.0
2 E DUCK         1441      77                N/A     4/11   2/11
OREGON INLET     1500   73 78   20/ 12/ 16 1020.9
13E OREGON INLT  1500      76                N/A     5/ 8   3/ 8
HATTERAS CG      1500   73 80   40/ 11/ 16 1020.2
DIAMOND BUOY     1450   73 85   30/ 19/ 21 1019.6    6/11   3/11
CAPE LOOKOUT     1500   76      40/ 16/ 18 1019.8
BEAUFORT LAB     1500   76 79   20/ 12/ 16 1019.7
30 SE NEW RVR IN 1408   79 82   60/ 16/ 19 1019.4
30 SE NEW RVR IN 1455      82                N/A     4/10   2/11
27 SE WRIGHTSVLE 1408   79 81   50/ 14/ 19 1019.5
5 SE WRIGHTSVLE  1408   78 81   60/ 14/ 19 1020.6
225 S CAPE HAT   1450   81 84   70/ 10/ 14 1017.2    4/10   3/10
41 SE CHARLESTON 1450   82 82   60/ 14/ 17 1018.3    4/10   3/10

$$



USA.gov is the U.S. government's official web portal to all federal, state and local government web resources and services.